ATLAS CENTAUR 2 1 00694U 63047A 25293.60898709 .00005114 00000+0 61717-3 0 9992 2 00694 30.3579 258.1174 0550986 286.3161 67.7551 14.11251238111817 THOR AGENA D R/B 1 00733U 64002A 25293.97055285 .00000523 00000+0 20396-3 0 9999 2 00733 99.1224 294.7321 0032144 306.4576 53.3645 14.33912953218271 SL-3 R/B 1 00877U 64053B 25293.59953433 .00000527 00000+0 12762-3 0 9996 2 00877 65.0790 21.8904 0068601 338.6465 21.1774 14.61197163246329 SL-8 R/B 1 02802U 67045B 25293.91774143 .00000765 00000+0 21945-3 0 9992 2 02802 74.0099 249.0890 0065672 289.7476 69.6607 14.45474555 68826 SL-8 R/B 1 03230U 68040B 25293.89752419 .00005714 00000+0 43630-3 0 9997 2 03230 74.0315 239.0587 0023326 97.5933 262.7905 15.01994994 69014 OAO 2 1 03597U 68110A 25293.80219461 .00000501 00000+0 14032-3 0 9990 2 03597 34.9945 326.1837 0005344 161.0567 199.0323 14.47195757998858 ISIS 1 1 03669U 69009A 25293.69220585 .00000378 00000+0 26268-3 0 9990 2 03669 88.4561 170.5898 1708331 11.8532 351.7918 11.30324951332718 SERT 2 1 04327U 70009A 25293.78752199 .00000014 00000+0 75134-4 0 9999 2 04327 99.2551 239.6653 0005023 152.8484 266.2220 13.58708936760895 SL-3 R/B 1 05118U 71028B 25293.89116499 .00036383 00000+0 62296-3 0 9991 2 05118 81.2413 223.2516 0024795 67.7368 292.6506 15.50706887966931 ASTEX 1 1 05560U 71089A 25293.93373644 .00001026 00000+0 26210-3 0 9993 2 05560 92.7111 106.5465 0015131 188.6963 171.3983 14.50542095842043 SL-8 R/B 1 05730U 71119B 25293.84813321 .00010500 00000+0 56145-3 0 9994 2 05730 73.8865 76.4411 0561747 71.5955 294.5413 14.34572954635410 OAO 3 (COPERNICUS) 1 06153U 72065A 25293.96635604 .00000695 00000+0 14757-3 0 9991 2 06153 35.0071 13.2769 0006043 97.6443 69.0158 14.59836904825763 ATLAS CENTAUR R/B 1 06155U 72065B 25293.67383938 .00002759 00000+0 38265-3 0 9994 2 06155 35.0025 45.9941 0034554 272.4461 87.2284 14.77194555820541 SL-8 R/B 1 08459U 75112B 25293.96251016 .00000451 00000+0 15737-3 0 9998 2 08459 74.0588 275.9298 0014806 37.8552 322.3640 14.38094929611783 SL-3 R/B 1 10114U 77057B 25293.93659600 .00016221 00000+0 39055-3 0 9998 2 10114 97.5670 95.2834 0009007 70.3871 289.8346 15.41316395646774 SEASAT 1 1 10967U 78064A 25293.96782800 .00000732 00000+0 24386-3 0 9996 2 10967 108.0046 192.3489 0002740 266.5450 93.5382 14.45974871486313 SL-14 R/B 1 11267U 79011B 25293.86322019 .00001250 00000+0 12155-3 0 9991 2 11267 82.5251 229.1794 0016569 158.9589 201.2316 14.91669249507938 SL-8 R/B 1 11574U 79089B 25293.91157985 .00000487 00000+0 15566-3 0 9991 2 11574 74.0708 349.7557 0016017 202.0637 157.9832 14.42231024415953 SL-14 R/B 1 11672U 80005B 25293.85142652 .00001296 00000+0 12946-3 0 9996 2 11672 82.5125 79.8474 0014333 269.9645 89.9932 14.90680534455651 SL-8 R/B 1 12139U 81003B 25293.76924722 .00024414 00000+0 68631-3 0 9999 2 12139 82.9320 58.8444 0286685 303.4867 53.9256 15.04257417293595 SL-3 R/B 1 12465U 81046B 25293.89307095 .00016498 00000+0 43750-3 0 9998 2 12465 81.2299 97.0723 0020754 144.2543 216.0092 15.37971255416916 METEOR PRIRODA 1 12585U 81065A 25293.69771768 .00257694 27209-4 74894-3 0 9995 2 12585 97.4621 355.7074 0002092 83.4102 276.7410 15.92906275422308 SL-3 R/B 1 12904U 81103B 25293.92249180 .00007686 00000+0 36046-3 0 9993 2 12904 81.1633 17.1629 0018281 54.9005 305.3936 15.19389769951999 SL-3 R/B 1 13068U 82013B 25293.87342047 .00006169 00000+0 28008-3 0 9990 2 13068 81.1746 324.4705 0021736 291.7069 68.1847 15.20422051383094 SL-3 R/B 1 13154U 82039B 25293.86792797 .00004642 00000+0 28769-3 0 9992 2 13154 81.1869 16.8616 0032873 62.2692 298.1860 15.09115308360542 SL-3 R/B 1 13403U 82079B 25293.86383077 .00008801 00000+0 37237-3 0 9991 2 13403 81.1502 357.9543 0024558 278.3670 81.4778 15.22794048356408 SL-14 R/B 1 13553U 82092B 25293.90690434 .00001057 00000+0 11641-3 0 9992 2 13553 82.5648 272.1243 0021697 48.1699 13.1879 14.86461525308164 SL-3 R/B 1 13819U 83010B 25293.70818355 .00018116 00000+0 42701-3 0 9995 2 13819 81.1062 173.2541 0017588 169.6468 190.5140 15.41621892336342 SL-3 R/B 1 14208U 83075B 25293.93213969 .00016826 00000+0 49931-3 0 9992 2 14208 97.6093 288.7046 0024067 14.3526 345.8395 15.34594466308696 COSMOS 1536 1 14699U 84013A 25293.94924932 .00012597 00000+0 55579-3 0 9995 2 14699 82.5453 246.4735 0017387 58.1309 302.1616 15.21512238251356 SL-14 R/B 1 14820U 84027B 25293.75792818 .00000883 00000+0 98441-4 0 9992 2 14820 82.5454 16.2327 0019507 78.1310 282.2092 14.85795985226857 SL-8 R/B 1 15483U 85006B 25293.80046876 .00000374 00000+0 13286-3 0 9996 2 15483 74.0446 158.5313 0017476 109.2000 323.9531 14.37675538133924 SL-12 R/B(2) 1 15772U 85042D 25293.71373735 .00000132 00000+0 81103-4 0 9990 2 15772 71.1104 23.4418 0036067 340.0027 132.8482 14.21927821 94499 SL-14 R/B 1 15945U 85069B 25293.65021981 .00000811 00000+0 89384-4 0 9990 2 15945 82.5268 156.6133 0017536 298.9685 60.9773 14.86237567152033 SL-16 R/B 1 16182U 85097B 25293.82851757 .00000038 00000+0 43090-4 0 9991 2 16182 71.0018 74.9915 0005397 117.6815 350.9463 14.16570865 67427 SL-14 R/B 1 16496U 86006B 25293.72828493 .00001060 00000+0 11045-3 0 9990 2 16496 82.5302 31.4170 0077315 17.7505 342.6384 14.86567498128416 COSMOS 1743 1 16719U 86034A 25293.92165505 .00035944 00000+0 67179-3 0 9996 2 16719 82.5389 219.2876 0009775 81.9353 278.3006 15.48522478158559 SL-14 R/B 1 16792U 86046B 25293.83571897 .00001023 00000+0 11558-3 0 9996 2 16792 82.4844 212.2652 0022533 334.0581 25.9503 14.85405089105640 SL-14 R/B 1 16882U 86055B 25293.65421532 .00001068 00000+0 12070-3 0 9995 2 16882 82.5183 258.2505 0020661 76.5963 95.9797 14.85439937 98570 AJISAI (EGS) 1 16908U 86061A 25293.91205343 -.00000063 00000+0 23970-3 0 9996 2 16908 50.0072 163.1613 0011139 292.0631 186.7637 12.44513845450597 COSMOS 1812 1 17295U 87003A 25293.89956076 .00082461 00000+0 80425-3 0 9995 2 17295 82.4929 348.7643 0002546 222.9914 137.1147 15.65922168122364 SL-14 R/B 1 17567U 87024B 25293.85251404 .00001058 00000+0 11819-3 0 9993 2 17567 82.5297 224.1248 0018605 9.0320 351.1228 14.85941912 67366 COSMOS 1833 1 17589U 87027A 25293.90759743 -.00000326 00000+0 -14858-3 0 9990 2 17589 70.9166 259.8344 0019993 47.8092 312.4722 14.13030861990564 SL-16 R/B 1 17590U 87027B 25293.93399500 .00000063 00000+0 55214-4 0 9994 2 17590 71.0032 210.9857 0006513 315.6840 44.3761 14.17142689995585 SL-14 R/B 1 17912U 87038B 25293.84294348 .00001025 00000+0 11668-3 0 9991 2 17912 82.5006 68.5101 0017871 266.7007 93.2164 14.85176199 58476 COSMOS 1844 1 17973U 87041A 25293.80761239 -.00000011 00000+0 19565-4 0 9996 2 17973 70.8992 329.2163 0032971 235.3118 124.4896 14.14505404983805 SL-14 R/B 1 18153U 87055B 25293.91149687 .00000861 00000+0 96653-4 0 9996 2 18153 82.4962 120.7766 0022066 114.0096 246.3433 14.85436309 49187 COSMOS 1867 1 18187U 87060A 25293.85653075 .00000038 00000+0 51935-4 0 9993 2 18187 65.0118 338.2969 0013846 265.9600 93.9901 14.31473076999912 COSMOS 1892 1 18421U 87088A 25293.88994440 .00191335 00000+0 73037-3 0 9998 2 18421 82.4692 103.0001 0004028 358.8926 1.2335 15.86999656 82872 SL-14 R/B 1 18749U 88001B 25293.83016289 .00000785 00000+0 88347-4 0 9997 2 18749 82.5128 326.9232 0017623 345.9372 14.1350 14.85341682 21263 COSMOS 1933 1 18958U 88020A 25293.77883119 .00007033 00000+0 35966-3 0 9998 2 18958 82.5173 29.1724 0003786 342.0622 18.0477 15.16489330 29016 SL-3 R/B 1 19046U 88032B 25293.94105691 .00009324 00000+0 45853-3 0 9992 2 19046 97.5024 273.0733 0027344 5.3720 354.7801 15.17911051 30890 SL-16 R/B 1 19120U 88039B 25293.89891128 .00000051 00000+0 47026-4 0 9996 2 19120 71.0171 4.1274 0022545 200.4016 159.6211 14.19583320938541 COSMOS 1953 1 19210U 88050A 25294.00121252 .00009413 00000+0 36332-3 0 9995 2 19210 82.5060 298.4770 0010074 252.2875 107.7264 15.26097441 16469 SL-8 R/B 1 19257U 88053B 25293.70890911 .00000482 00000+0 16508-3 0 9990 2 19257 74.0500 10.4572 0020928 228.4162 247.2311 14.38811846956461 COSMOS 1975 1 19573U 88093A 25293.85855788 .00015559 00000+0 61787-3 0 9994 2 19573 82.5189 257.7146 0009912 313.5192 46.5221 15.25172422998060 SL-14 R/B 1 19574U 88093B 25293.95667949 .00000816 00000+0 91456-4 0 9993 2 19574 82.5329 173.1958 0021736 137.2055 234.4692 14.85472899980298 SL-16 R/B 1 19650U 88102B 25293.83460645 .00000114 00000+0 81537-4 0 9990 2 19650 70.9976 85.7563 0015899 229.6101 130.3635 14.16124025907090 INTERCOSMOS 24 1 20261U 89080A 25293.74932355 .00001038 00000+0 30963-3 0 9990 2 20261 82.6105 195.4082 1187531 257.5054 89.0932 12.59332515649183 SL-14 R/B 1 20262U 89080C 25293.85460087 .00000313 00000+0 85879-4 0 9993 2 20262 82.5889 262.9640 1231305 144.3687 224.6328 12.50364446642678 DELTA 1 R/B 1 20323U 89089B 25293.86867591 .00000629 00000+0 16490-3 0 9994 2 20323 97.0816 158.4713 0068493 203.3618 156.4463 14.50508094875460 ARIANE 40 R/B 1 20443U 90005H 25293.92225605 .00000577 00000+0 19769-3 0 9992 2 20443 98.3318 353.5742 0008944 264.2976 95.7192 14.39738092872698 DELTA 2 R/B(1) 1 20453U 90008B 25293.23307732 .00046258 00000+0 85229-3 0 9992 2 20453 35.6089 4.7806 0119466 51.3793 309.7565 15.40521541904362 COSMOS 2058 1 20465U 90010A 25293.94894864 .00005784 00000+0 35483-3 0 9999 2 20465 82.4732 184.9434 0011002 89.2208 271.0282 15.09906636921145 SL-14 R/B 1 20466U 90010B 25293.79510949 .00000890 00000+0 10522-3 0 9992 2 20466 82.5049 38.7564 0020872 44.1337 316.1539 14.83398047907744 SL-14 R/B 1 20511U 90018B 25293.67833166 .00000754 00000+0 91963-4 0 9995 2 20511 82.5240 353.9594 0016224 187.7759 172.3206 14.81974882901844 HST 1 20580U 90037B 25293.28394481 .00012652 00000+0 45494-3 0 9998 2 20580 28.4689 276.0595 0002049 6.7972 353.2650 15.27030500751813 SL-16 R/B 1 20625U 90046B 25293.93836649 .00000369 00000+0 21519-3 0 9991 2 20625 70.9987 231.4051 0013597 165.5201 194.6314 14.14986433828625 COSMOS 2084 1 20663U 90055A 25293.87073932 .00005839 00000+0 42149-3 0 9993 2 20663 62.7889 92.0697 0040820 168.4111 191.7939 15.04508524915275 SL-6 R/B(2) 1 20666U 90055D 25293.93722572 .00004033 00000+0 31479-3 0 9993 2 20666 62.7862 8.7771 0010880 259.4452 100.5421 15.02694025917184 SL-8 R/B 1 20775U 90078B 25293.68516439 .00030150 00000+0 93898-3 0 9996 2 20775 82.9101 16.6722 0384642 122.9849 240.8962 14.83349151788508 SL-8 R/B 1 21088U 91006B 25293.93720201 .00000204 00000+0 18939-3 0 9998 2 21088 82.9384 273.9972 0023880 68.0509 321.3015 13.77477153744839 OKEAN-3 1 21397U 91039A 25293.91785339 .00005832 00000+0 42369-3 0 9994 2 21397 82.5136 112.1550 0015750 86.3430 273.9597 15.03598001844028 COSMOS 2151 1 21422U 91042A 25293.90754396 .00003340 00000+0 27042-3 0 9998 2 21422 82.4991 218.3941 0012863 163.1580 197.0074 14.99394774842243 SL-14 R/B 1 21423U 91042B 25293.63469847 .00000705 00000+0 86535-4 0 9998 2 21423 82.4955 351.5234 0016643 346.4625 13.6140 14.81670386832338 ERS-1 1 21574U 91050A 25293.97387569 .00000572 00000+0 19803-3 0 9996 2 21574 98.7938 303.6994 0030931 256.3756 103.3986 14.39304512795631 ARIANE 40 R/B 1 21610U 91050F 25293.73288543 .00000647 00000+0 20678-3 0 9998 2 21610 98.2247 346.0563 0004132 126.8029 233.3541 14.42746695798811 INTERCOSMOS 25 1 21819U 91086A 25293.79323349 .00001849 00000+0 35687-3 0 9999 2 21819 82.6096 34.5646 1489069 58.4626 315.3312 12.11521321479748 SL-8 R/B 1 21876U 92008B 25293.75129877 .00000116 00000+0 10377-3 0 9998 2 21876 82.9313 11.8520 0035204 163.5262 310.4554 13.75944271690176 SL-8 R/B 1 21938U 92020B 25293.95818972 .00000030 00000+0 15950-4 0 9992 2 21938 82.9276 257.5141 0028373 330.6297 88.8191 13.75518705681920 USA 81 1 21949U 92023A 25293.80039659 .00000352 00000+0 12314-3 0 9995 2 21949 85.0114 212.0960 0002676 96.8796 263.2701 14.32297756 74763 COSMOS 2219 1 22219U 92076A 25293.45784001 .00000279 00000+0 17128-3 0 9999 2 22219 71.0588 311.2127 0016335 50.5259 309.7306 14.14048124698558 SL-16 R/B 1 22220U 92076B 25293.99665713 -.00000052 00000+0 -17447-5 0 9995 2 22220 70.9976 122.6315 0014799 302.6534 212.1469 14.16829537702045 COSMOS 2221 1 22236U 92080A 25293.82961552 .00004029 00000+0 36168-3 0 9994 2 22236 82.5056 52.9430 0013421 305.3536 54.6430 14.95439553759889 SL-16 R/B 1 22285U 92093B 25293.45787475 -.00000054 00000+0 -32310-5 0 9994 2 22285 71.0210 298.6448 0004102 196.4900 163.6090 14.15420385693319 COSMOS 2228 1 22286U 92094A 25293.93622316 .00003637 00000+0 31781-3 0 9998 2 22286 82.5221 11.0403 0019344 55.6583 304.6466 14.96383570755152 SL-16 R/B 1 22566U 93016B 25293.83774772 .00000203 00000+0 12882-3 0 9994 2 22566 71.0068 148.9106 0010269 189.0047 171.0893 14.15278783682383 COSMOS 2242 1 22626U 93024A 25293.79337780 .00004193 00000+0 37267-3 0 9995 2 22626 82.5219 40.4257 0017591 58.6588 301.6353 14.95781005759475 SL-16 R/B 1 22803U 93059B 25293.86593226 .00000306 00000+0 17526-3 0 9995 2 22803 70.9893 305.9833 0015092 59.1850 301.0757 14.17198407659723 ARIANE 40 R/B 1 22830U 93061H 25293.89309114 .00000450 00000+0 18127-3 0 9990 2 22830 98.5141 0.3688 0010238 344.1555 15.9307 14.32743189674083 COSMOS 2278 1 23087U 94023A 25293.91609304 -.00000116 00000+0 -36027-4 0 9992 2 23087 71.0511 107.5223 0011068 249.0862 110.9076 14.14332737625040 SL-16 R/B 1 23088U 94023B 25293.60252530 .00000296 00000+0 17773-3 0 9997 2 23088 71.0019 5.0774 0002968 190.3457 169.7605 14.14984266626270 SL-16 R/B 1 23343U 94074B 25293.92004491 .00000903 00000+0 12831-3 0 9998 2 23343 97.7276 325.3045 0005689 327.9352 130.8700 14.79199445666589 SL-16 R/B 1 23405U 94077B 25293.99207371 -.00000096 00000+0 -24777-4 0 9997 2 23405 70.9816 286.3805 0003157 325.3708 34.7209 14.15541059596463 ARIANE 40+ R/B 1 23561U 95021B 25293.78676586 .00000596 00000+0 20462-3 0 9994 2 23561 98.4714 2.0003 0006549 191.6412 280.1865 14.39633944599116 SL-16 R/B 1 23705U 95058B 25293.92145740 -.00000123 00000+0 -38426-4 0 9991 2 23705 71.0183 113.6930 0013809 324.1806 35.8389 14.15467320548070 SL-16 R/B 1 24298U 96051B 25293.93850853 -.00000087 00000+0 -20575-4 0 9997 2 24298 70.7575 111.0415 0016533 330.0574 29.9599 14.12393186501918 ORBVIEW 2 (SEASTAR) 1 24883U 97037A 25293.93775992 .00000658 00000+0 24546-3 0 9995 2 24883 98.8433 89.6944 0003211 106.4830 253.6708 14.35356583488421 SL-16 R/B 1 25400U 98043G 25293.82377247 .00000163 00000+0 87264-4 0 9996 2 25400 98.8025 241.3712 0010839 62.9340 297.2945 14.26005540419054 SL-16 R/B 1 25407U 98045B 25293.93034192 -.00000140 00000+0 -46581-4 0 9990 2 25407 71.0083 115.4806 0009515 246.0868 113.9259 14.16161249407318 ISS (ZARYA) 1 25544U 98067A 25293.78246337 .00016075 00000+0 29626-3 0 9997 2 25544 51.6343 44.6559 0004365 316.7773 43.2873 15.49292312534646 CZ-4B R/B 1 25732U 99025C 25293.85879932 .00000155 00000+0 95529-4 0 9990 2 25732 98.6853 336.2991 0037592 28.6032 145.1821 14.18224365368342 OKEAN-O 1 25860U 99039A 25293.92297576 .00001465 00000+0 20048-3 0 9991 2 25860 97.9683 350.0634 0001894 85.0006 275.1422 14.80030173413713 SL-16 R/B 1 25861U 99039B 25293.90167205 .00001120 00000+0 14966-3 0 9995 2 25861 98.0207 348.0295 0014684 356.4363 3.6742 14.81474735416168 DELTA 2 R/B 1 25876U 99041E 25293.95417477 .00001459 00000+0 27351-3 0 9995 2 25876 51.7635 139.1135 0504417 296.1643 58.8245 14.11226924343297 HELIOS 1B 1 25977U 99064A 25293.71559537 .00003755 00000+0 42606-3 0 9991 2 25977 98.1766 186.8193 0002083 114.2899 245.8533 14.86961904664455 TERRA 1 25994U 99068A 25293.94843248 .00000934 00000+0 20009-3 0 9993 2 25994 97.9828 347.5473 0000926 256.4279 277.2731 14.60861900374670 SL-16 R/B 1 26070U 00006B 25293.69761514 -.00000146 00000+0 -49957-4 0 9991 2 26070 71.0042 32.1834 0015388 27.1345 333.0579 14.15793745328749 TITAN 4B R/B 1 26474U 00047B 25293.89776968 .00007679 00000+0 49251-3 0 9997 2 26474 67.9895 73.1949 0044371 204.4667 155.4377 15.08169171371822 ENVISAT 1 27386U 02009A 25293.84269635 .00000277 00000+0 10369-3 0 9998 2 27386 98.3505 245.9494 0001330 87.2989 289.4912 14.38969795239061 IDEFIX & ARIANE 42P R/B 1 27422U 02021B 25293.78980701 .00000583 00000+0 23862-3 0 9992 2 27422 98.5698 229.1923 0010763 237.3728 122.6417 14.30892316224010 AQUA 1 27424U 02022A 25293.91814520 .00002203 00000+0 45296-3 0 9991 2 27424 98.3946 253.9693 0001667 58.5099 35.2017 14.61619116248315 CZ-4B R/B 1 27432U 02024C 25293.74508956 .00000113 00000+0 81278-4 0 9995 2 27432 98.9085 342.6799 0051039 61.0520 46.5979 14.14512200209451 MIDORI II (ADEOS-II) 1 27597U 02056A 25293.85786365 .00000557 00000+0 23733-3 0 9999 2 27597 98.7540 246.5624 0002053 65.3762 294.7633 14.29150662190328 H-2A R/B 1 27601U 02056E 25293.91865368 .00000537 00000+0 20353-3 0 9996 2 27601 98.2975 254.8028 0069484 217.4410 209.3070 14.33620682194085 CZ-4B R/B 1 28059U 03049C 25293.98287330 .00000886 00000+0 21544-3 0 9991 2 28059 98.6747 278.5645 0047289 298.8912 60.7544 14.54832812166280 CZ-2C R/B 1 28222U 04012C 25293.71603461 .00042667 00000+0 72797-3 0 9991 2 28222 97.7512 342.1294 0021382 103.4636 256.9000 15.50962875182497 SL-16 R/B 1 28353U 04021B 25293.93985041 -.00000149 00000+0 -52689-4 0 9997 2 28353 71.0003 165.7665 0007517 258.7833 101.2444 14.14574368103076 CZ-4B R/B 1 28415U 04035C 25293.93267292 .00011186 00000+0 42730-3 0 9998 2 28415 97.3683 325.0063 0036069 103.1603 257.3664 15.26172096158573 CZ-2C R/B 1 28480U 04046B 25293.80668622 .00000307 00000+0 12970-3 0 9996 2 28480 98.1935 212.4888 0138880 208.1126 151.2508 14.26906880 88552 ARIANE 5 R/B 1 28499U 04049H 25293.89120128 .00001901 00000+0 21638-3 0 9994 2 28499 98.2502 92.2950 0086021 84.2110 276.8902 14.84852907125044 CZ-2D R/B 1 28738U 05024B 25293.96131297 .00034803 00000+0 62722-3 0 9997 2 28738 97.3685 300.1480 0006472 152.8091 207.3500 15.49688906118079 ALOS (DAICHI) 1 28931U 06002A 25293.85153868 .00003189 00000+0 54947-3 0 9998 2 28931 98.0996 245.7471 0002024 62.3056 297.8354 14.69222020 52942 H-2A R/B 1 28932U 06002B 25293.84066528 .00012224 00000+0 66614-3 0 9998 2 28932 98.2279 64.3458 0055925 357.2865 2.8053 15.13208631 73261 RESURS-DK 1 1 29228U 06021A 25293.90322384 .00005246 00000+0 31310-3 0 9991 2 29228 69.9332 238.3355 0006537 308.0411 52.0164 15.11726016 66396 CZ-4B R/B 1 29507U 06046C 25293.88134244 .00007700 00000+0 40825-3 0 9999 2 29507 97.5813 334.1670 0035417 33.9231 326.4255 15.15111068 38864 CZ-2C R/B 1 31114U 07010B 25293.80848181 .00000213 00000+0 11725-3 0 9991 2 31114 98.3940 49.1344 0058617 342.0352 17.8753 14.20179023959863 COSMO-SKYMED 1 1 31598U 07023A 25293.99665517 .00005667 00000+0 52061-3 0 9997 2 31598 97.8863 119.0655 0001419 89.8812 270.2571 14.95220130994011 COSMOS 2428 1 31792U 07029A 25293.85236707 -.00000192 00000+0 -77580-4 0 9993 2 31792 70.9379 136.9121 0001861 146.6533 213.4706 14.12896637944340 SL-16 R/B 1 31793U 07029B 25293.94670574 -.00000064 00000+0 -84560-5 0 9993 2 31793 70.9734 106.1283 0002682 265.5331 248.4361 14.14804836945600 KORONAS-FOTON 1 33504U 09003A 25293.80943261 .00019061 00000+0 48445-3 0 9995 2 33504 82.4319 60.8650 0010825 302.0508 57.9685 15.39436197924196 CZ-2C R/B 1 37731U 11030B 25293.88564751 .00002810 00000+0 36356-3 0 9997 2 37731 97.8318 249.2002 0054797 85.4114 334.2654 14.80622040769403 H-2A R/B 1 38341U 12025E 25293.86942885 .00006248 00000+0 58140-3 0 9990 2 38341 98.4501 245.0730 0046921 51.0955 309.4432 14.93874008727337 SHIJIAN-16 (SJ-16) 1 39358U 13057A 25293.89237208 .00002268 00000+0 22770-3 0 9992 2 39358 74.9705 89.6231 0015945 92.0312 268.2702 14.91707049650653 SL-4 R/B 1 39679U 14021B 25293.31839848 .00021834 00000+0 54277-3 0 9992 2 39679 51.6082 299.8245 0105959 313.5201 45.7012 15.34582718634681 ALOS-2 1 39766U 14029A 25293.85411104 .00000954 00000+0 13458-3 0 9993 2 39766 97.9230 29.4530 0001555 100.8298 259.3089 14.79489528616196 YAOGAN-29 1 41038U 15069A 25293.98334744 .00000889 00000+0 11662-3 0 9993 2 41038 98.0279 316.9696 0002890 86.6921 273.4623 14.82795424535178 ASTRO-H (HITOMI) 1 41337U 16012A 25293.37976712 .00006375 00000+0 38873-3 0 9993 2 41337 30.9995 181.2399 0010070 0.6355 359.4295 15.08869684531017 HXMT (HUIYAN) 1 42758U 17034A 25293.81229120 .00009949 00000+0 52302-3 0 9992 2 42758 43.0141 73.1448 0031809 70.5211 289.9069 15.15374953461305 CZ-2C R/B 1 43521U 18054D 25292.05315533 .00099179 00000+0 10132-2 0 9991 2 43521 35.1360 188.5471 0028932 335.5173 24.4183 15.63219804406461 SAOCOM 1A 1 43641U 18076A 25293.94620461 .00000894 00000+0 11884-3 0 9998 2 43641 97.8876 119.1297 0001451 87.1103 273.0276 14.82157588380665 H-2A R/B 1 43682U 18084L 25293.92802960 .00026139 00000+0 76481-3 0 9990 2 43682 98.8816 117.1711 0029411 145.5885 214.7266 15.34817239384294 SAOCOM 1B 1 46265U 20059A 25293.97744769 .00000907 00000+0 12051-3 0 9990 2 46265 97.8870 118.2643 0001355 88.4485 271.6883 14.82148736278051 CSS (TIANHE) 1 48274U 21035A 25293.56770050 .00042045 00000+0 50045-3 0 9998 2 48274 41.4671 339.7631 0011453 250.2462 109.7142 15.60256545255721 COSMOS 2550 1 48865U 21056A 25291.82127949 -.00000179 00000+0 37945-6 0 9997 2 48865 67.1395 110.1098 0008424 269.4029 90.6160 15.33831764241701 CZ-2C R/B 1 52794U 22058K 25293.76473357 .00032973 00000+0 66133-3 0 9992 2 52794 50.1921 312.9672 0051913 337.3656 22.5022 15.44883494188436 GSLV R/B 1 54149U 22138AN 25293.80893654 .00005752 00000+0 51290-3 0 9991 2 54149 87.3860 213.1826 0019527 305.0190 54.9208 14.95682668163016 XRISM 1 57800U 23137A 25293.55318090 .00008140 00000+0 48925-3 0 9991 2 57800 31.0008 108.7244 0008270 68.5057 291.6462 15.09515213116581 ACS3 1 59588U 24077B 25293.90001573 .00021299 00000+0 19626-1 0 9998 2 59588 97.3556 261.1661 0019989 14.8231 345.3510 13.82447324 74831